Location: Branche des Alpilles
(43.6087°N, 4.6976°E)
Time: 05:09:30
(UTC+00:00)

Okean O Rocket - Pass Details

Date: 30 November 2020
Orbit: 622 x 645 km, 98.2° (Epoch: 24 January)

Event Time Altitude Azimuth Distance (km) Brightness Sun altitude
Rises 17:33:46 0° 180° (S) 2,894 5.2 -15.5°
Reaches altitude 10° 17:36:00 10° 186° (S) 1,994 4.4 -15.9°
Maximum altitude 17:40:11 47° 260° (W) 834 2.7 -16.6°
Drops below altitude 10° 17:44:27 10° 335° (NNW) 2,022 4.3 -17.3°
Sets 17:46:44 0° 341° (NNW) 2,939 5.1 -17.7°
